Breckenridge, MN

11:43 AM CST on January 24, 2017 (GMT -0600)
Stern

Weather History for KBWP - March, 2014

Change the Weather History Date:

Friday, March 7, 2014

  Actual Average (KFFM) Record (KFFM)
Temperature  
Mean Temperature 21 °F -  
Max Temperature 32 °F 31 °F 65 °F (1987)
Min Temperature 10 °F 8 °F -20 °F (1955)
Degree Days  
Heating Degree Days 44    
Moisture  
Dew Point 16 °F    
Average Humidity 82    
Maximum Humidity 93    
Minimum Humidity 74    
Precipitation  
Precipitation 0.01 in - - ()
Sea Level Pressure  
Sea Level Pressure 30.06 in    
Wind  
Wind Speed 15 mph (NNW)    
Max Wind Speed 25 mph    
Max Gust Speed 32 mph    
Visibility 8 miles    
Events      
Averages and records for this station are not official NWS values.
T = Trace of Precipitation, MM = Missing Value Source: NWS Daily Summary

Daily Weather History Graph

Daily Weather History Graph

Search for Another Location

Airport or City:

Trip Planner

Search our weather history database for the weather conditions in past years. The results will help you decide how hot, cold, wet, or windy it might be!

Date:

Astronomy

Mar. 07, 2014 Rise Set
Actual Time 6:54 AM CST 6:21 PM CST
Civil Twilight 6:24 AM CST 6:51 PM CST
Nautical Twilight 5:49 AM CST 7:26 PM CST
Astronomical Twilight 5:14 AM CST 8:01 PM CST
Moon 10:27 AM CST (3/7) 12:47 AM CST (3/7)
Length of Visible Light 12h 26m
Length of Day
11h 26m
Waxing Crescent, 42% of the Moon is Illuminated
Mar 7
Waxing Crescent
Mar 8
First Quarter
Mar 16
Full
Mar 23
Last Quarter
Mar 30
New

Hourly Weather History & Observations

Time (CST) Temp. Windchill Dew Point Humidity Pressure Visibility Wind Dir Wind Speed Gust Speed Precip Events Conditions
12:15 AM 32.0 °F 25.6 °F 30.2 °F 93% 29.73 in 3.0 mi SSW 6.9 mph - N/A   Mostly Cloudy
12:35 AM 32.0 °F 27.5 °F 30.2 °F 93% 29.73 in 3.0 mi SSW 4.6 mph - N/A   Mostly Cloudy
12:55 AM 32.0 °F 28.7 °F 30.2 °F 93% 29.73 in 3.0 mi SW 3.5 mph - N/A   Overcast
1:15 AM 32.0 °F - 30.2 °F 93% 29.73 in 2.5 mi Calm Calm - N/A   Overcast
1:35 AM 32.0 °F 26.4 °F 30.2 °F 93% 29.75 in 2.5 mi WSW 5.8 mph - N/A   Overcast
1:55 AM 32.0 °F 24.8 °F 30.2 °F 93% 29.76 in 2.0 mi West 8.1 mph - 0.01 in   Overcast
2:15 AM 32.0 °F 20.1 °F 30.2 °F 93% 29.76 in 2.5 mi NNW 19.6 mph 27.6 mph N/A   Overcast
2:35 AM 28.4 °F 15.1 °F 26.6 °F 93% 29.78 in 2.0 mi NNW 20.7 mph 29.9 mph N/A   Overcast
2:55 AM 28.4 °F 15.4 °F 26.6 °F 93% 29.79 in 2.5 mi NNW 19.6 mph 29.9 mph N/A   Overcast
3:15 AM 28.4 °F 15.1 °F 26.6 °F 93% 29.80 in 3.0 mi NNW 20.7 mph 27.6 mph N/A   Overcast
3:35 AM 28.4 °F 15.1 °F 24.8 °F 86% 29.81 in 4.0 mi NNW 20.7 mph 24.2 mph N/A   Overcast
3:55 AM 26.6 °F 14.3 °F 23.0 °F 86% 29.83 in 4.0 mi NNW 16.1 mph 25.3 mph N/A   Overcast
4:15 AM 26.6 °F 13.1 °F 23.0 °F 86% 29.84 in 4.0 mi NNW 19.6 mph 29.9 mph N/A   Overcast
4:35 AM 26.6 °F 12.0 °F 21.2 °F 80% 29.84 in 5.0 mi NNW 23.0 mph 27.6 mph N/A   Overcast
4:55 AM 24.8 °F 10.3 °F 21.2 °F 86% 29.86 in 7.0 mi NNW 20.7 mph 26.5 mph N/A   Overcast
5:15 AM 24.8 °F 9.6 °F 21.2 °F 86% 29.87 in 7.0 mi NNW 23.0 mph 28.8 mph N/A   Overcast
5:35 AM 23.0 °F 6.9 °F 19.4 °F 86% 29.89 in 7.0 mi NNW 24.2 mph 29.9 mph N/A   Overcast
5:55 AM 23.0 °F 7.2 °F 19.4 °F 86% 29.91 in 10.0 mi NNW 23.0 mph 27.6 mph N/A   Overcast
6:15 AM 23.0 °F 9.2 °F 19.4 °F 86% 29.92 in 10.0 mi NNW 17.3 mph 27.6 mph N/A   Overcast
6:35 AM 23.0 °F 7.6 °F 17.6 °F 80% 29.94 in 10.0 mi NNW 21.9 mph 27.6 mph N/A   Overcast
6:55 AM 21.2 °F 5.2 °F 17.6 °F 86% 29.95 in 10.0 mi NNW 21.9 mph 27.6 mph N/A   Overcast
7:15 AM 21.2 °F 5.6 °F 17.6 °F 86% 29.97 in 10.0 mi NNW 20.7 mph 27.6 mph N/A   Overcast
7:35 AM 21.2 °F 5.6 °F 15.8 °F 80% 29.98 in 10.0 mi North 20.7 mph 26.5 mph N/A   Overcast
7:55 AM 19.4 °F 4.5 °F 15.8 °F 86% 29.99 in 7.0 mi NNW 17.3 mph - N/A   Overcast
8:15 AM 19.4 °F 2.1 °F 14.0 °F 80% 29.99 in 5.0 mi NNW 24.2 mph 28.8 mph N/A   Overcast
8:35 AM 19.4 °F 1.8 °F 14.0 °F 80% 30.00 in 5.0 mi NNW 25.3 mph 31.1 mph N/A   Overcast
8:55 AM 19.4 °F 3.2 °F 14.0 °F 80% 30.01 in 5.0 mi NNW 20.7 mph 28.8 mph N/A   Overcast
9:10 AM 19.4 °F 2.5 °F 14.0 °F 80% 30.02 in 7.0 mi NNW 23.0 mph 28.8 mph N/A   Overcast
9:35 AM 19.4 °F 2.5 °F 14.0 °F 80% 30.03 in 7.0 mi NNW 23.0 mph 31.1 mph N/A   Overcast
9:55 AM 19.4 °F 3.6 °F 14.0 °F 80% 30.04 in 7.0 mi NNW 19.6 mph 28.8 mph N/A   Overcast
10:15 AM 19.4 °F 2.8 °F 14.0 °F 80% 30.05 in 7.0 mi NNW 21.9 mph 28.8 mph N/A   Mostly Cloudy
10:35 AM 19.4 °F 3.6 °F 14.0 °F 80% 30.06 in 10.0 mi NNW 19.6 mph 26.5 mph N/A   Overcast
10:55 AM 21.2 °F 4.5 °F 14.0 °F 74% 30.07 in 10.0 mi NNW 24.2 mph 32.2 mph N/A   Mostly Cloudy
11:15 AM 21.2 °F 4.9 °F 14.0 °F 74% 30.08 in 10.0 mi North 23.0 mph 29.9 mph N/A   Overcast
11:35 AM 21.2 °F 4.5 °F 14.0 °F 74% 30.08 in 7.0 mi NNW 24.2 mph 29.9 mph N/A   Overcast
11:55 AM 21.2 °F 4.2 °F 14.0 °F 74% 30.09 in 5.0 mi NNW 25.3 mph 31.1 mph N/A   Overcast
12:15 PM 21.2 °F 4.5 °F 14.0 °F 74% 30.10 in 7.0 mi North 24.2 mph 29.9 mph N/A   Overcast
12:35 PM 21.2 °F 5.2 °F 14.0 °F 74% 30.10 in 7.0 mi North 21.9 mph 31.1 mph N/A   Overcast
12:55 PM 21.2 °F 4.5 °F 15.8 °F 80% 30.11 in 5.0 mi NNW 24.2 mph 29.9 mph N/A   Overcast
1:15 PM 21.2 °F 4.5 °F 15.8 °F 80% 30.11 in 7.0 mi NNW 24.2 mph 31.1 mph N/A   Overcast
1:35 PM 21.2 °F 7.3 °F 14.0 °F 74% 30.12 in 10.0 mi NNW 16.1 mph 24.2 mph N/A   Overcast
1:50 PM 21.2 °F 6.0 °F 15.8 °F 80% 30.13 in 10.0 mi North 19.6 mph 26.5 mph N/A   Overcast
2:15 PM 21.2 °F 5.2 °F 15.8 °F 80% 30.13 in 10.0 mi North 21.9 mph 28.8 mph N/A   Overcast
2:35 PM 21.2 °F 5.6 °F 15.8 °F 80% 30.14 in 10.0 mi NNW 20.7 mph 26.5 mph N/A   Overcast
2:55 PM 21.2 °F 6.0 °F 15.8 °F 80% 30.15 in 10.0 mi NNW 19.6 mph 25.3 mph N/A   Overcast
3:15 PM 21.2 °F 6.4 °F 14.0 °F 74% 30.15 in 10.0 mi North 18.4 mph 28.8 mph N/A   Overcast
3:35 PM 21.2 °F 7.3 °F 14.0 °F 74% 30.16 in 10.0 mi NNW 16.1 mph - N/A   Overcast
3:55 PM 21.2 °F 5.2 °F 14.0 °F 74% 30.17 in 10.0 mi North 21.9 mph 27.6 mph N/A   Overcast
4:15 PM 21.2 °F 7.3 °F 14.0 °F 74% 30.18 in 10.0 mi NNW 16.1 mph 24.2 mph N/A   Overcast
4:35 PM 21.2 °F 6.4 °F 14.0 °F 74% 30.18 in 10.0 mi North 18.4 mph 23.0 mph N/A   Overcast
4:55 PM 19.4 °F 5.0 °F 14.0 °F 80% 30.19 in 10.0 mi North 16.1 mph 21.9 mph N/A   Overcast
5:15 PM 19.4 °F 5.5 °F 14.0 °F 80% 30.20 in 10.0 mi NNW 15.0 mph 21.9 mph N/A   Mostly Cloudy
5:35 PM 19.4 °F 5.0 °F 14.0 °F 80% 30.21 in 10.0 mi North 16.1 mph 21.9 mph N/A   Overcast
5:55 PM 19.4 °F 4.1 °F 12.2 °F 74% 30.22 in 10.0 mi North 18.4 mph 23.0 mph N/A   Mostly Cloudy
6:15 PM 17.6 °F 2.7 °F 12.2 °F 79% 30.23 in 10.0 mi North 16.1 mph - N/A   Scattered Clouds
6:30 PM 17.6 °F 1.3 °F 12.2 °F 79% 30.23 in 10.0 mi North 19.6 mph 23.0 mph N/A   Clear
6:55 PM 17.6 °F 3.2 °F 12.2 °F 79% 30.25 in 10.0 mi North 15.0 mph - N/A   Clear
7:15 PM 17.6 °F 3.7 °F 12.2 °F 79% 30.25 in 10.0 mi North 13.8 mph - N/A   Clear
7:35 PM 15.8 °F 2.1 °F 10.4 °F 79% 30.26 in 10.0 mi North 12.7 mph - N/A   Clear
7:55 PM 14.0 °F -0.2 °F 10.4 °F 86% 30.26 in 10.0 mi North 12.7 mph 17.3 mph N/A   Clear
8:15 PM 14.0 °F 1.2 °F 10.4 °F 86% 30.27 in 10.0 mi North 10.4 mph 17.3 mph N/A   Clear
8:35 PM 14.0 °F 2.9 °F 8.6 °F 79% 30.28 in 10.0 mi North 8.1 mph - N/A   Clear
8:55 PM 12.2 °F 2.9 °F 8.6 °F 85% 30.28 in 10.0 mi North 5.8 mph - N/A   Clear
9:15 PM 12.2 °F -2.5 °F 8.6 °F 85% 30.29 in 10.0 mi North 12.7 mph 16.1 mph N/A   Clear
9:35 PM 12.2 °F 0.7 °F 8.6 °F 85% 30.30 in 10.0 mi North 8.1 mph - N/A   Clear
9:55 PM 12.2 °F -2.5 °F 6.8 °F 79% 30.30 in 10.0 mi North 12.7 mph 17.3 mph N/A   Clear
10:15 PM 10.4 °F -4.1 °F 5.0 °F 79% 30.30 in 10.0 mi North 11.5 mph - N/A   Clear
10:35 PM 10.4 °F -4.1 °F 6.8 °F 85% 30.30 in 10.0 mi North 11.5 mph 18.4 mph N/A   Clear
10:55 PM 10.4 °F -4.8 °F 5.0 °F 79% 30.31 in 10.0 mi North 12.7 mph - N/A   Clear
11:10 PM 10.4 °F -4.8 °F 5.0 °F 79% 30.31 in 10.0 mi North 12.7 mph - N/A   Clear
11:35 PM 10.4 °F -4.1 °F 5.0 °F 79% 30.32 in 10.0 mi North 11.5 mph - N/A   Clear
11:55 PM 10.4 °F -4.8 °F 5.0 °F 79% 30.32 in 10.0 mi North 12.7 mph - N/A   Clear